AirNav   Air Wisconsin pilot careers
 
 1606 users online  

67T Old Hoppe Place Airport
Agua Dulce, Texas, USA

GOING TO AGUA DULCE?


FAA INFORMATION EFFECTIVE 11 OCTOBER 2018

Location

FAA Identifier: 67T
Lat/Long: 27-48-00.8800N / 097-51-03.6750W
27-48.014667N / 097-51.061250W
27.8002444 / -97.8510208
(estimated)
Elevation: 96.3 ft. / 29 m (estimated)
Variation: 06E (2000)
From city: 3 miles E of AGUA DULCE, TX
Time zone: UTC -5 (UTC -6 during Standard Time)
Zip code: 78330

Airport Operations

Airport use: Open to the public
Activation date: 01/1997
Control tower: no
ARTCC: HOUSTON CENTER
FSS: SAN ANGELO FLIGHT SERVICE STATION
NOTAMs facility: SJT (NOTAM-D service available)
Attendance: MON-FRI 0800-1630
Wind indicator: lighted
Segmented circle: no
Lights: FOR LIRL RY 16/34, REIL AND VASI RYS 16 & 34 PRIOR ARRANGEMENTS REQUIRED. CALL 361-998-2516.
Beacon: white-green (lighted land airport)
BEACON DUSK-0100.
Landing fee: yes

Airport Communications

CTAF: 122.9
WX AWOS-3 at RBO (9 nm E): 118.175 (361-767-1982)
WX ASOS at ALI (10 nm W): 119.225 (361-668-0069)
WX AWOS-3P at IKG (18 nm SW): 119.075 (361-592-9152)
WX ASOS at CRP (19 nm E): PHONE 361-289-0191

Nearby radio navigation aids

VOR radial/distance  VOR name  Freq  Var
ALIr062/(9.7)ALICE VOR114.5006E
CRPr245/22.4CORPUS CHRISTI VORTAC115.5009E
NGPr277/30.3TRUAX VORTAC114.0006E

Airport Services

Parking: hangars and tiedowns

Runway Information

Runway 16/34

Dimensions: 2764 x 30 ft. / 842 x 9 m
Surface: concrete, in good condition
RYS 16 AND 34 HAVE 40 FT BLAST PADS 30 FT WIDE.
Runway edge lights: low intensity
RY LGTS SURROUNDED BY 18 INCH HIGH STAKES AND RAZOR WIRE.
Runway edge markings: NRS 30 FT LONG.
RUNWAY 16  RUNWAY 34
Latitude: 27-48.238167N27-47.791167N
Longitude: 097-51.112500W097-51.010000W
Elevation: 94.7 ft.96.3 ft.
Traffic pattern: leftleft
Markings: basic, in good conditionbasic, in good condition
Visual slope indicator: 2-box VASI on left (3.00 degrees glide path)
VASI SURROUNDED BY 2 FT HIGH RAZOR WIRE.
2-box VASI on left (3.75 degrees glide path)
VASI SURROUNDED BY 2 FT HIGH RAZOR WIRE.
Runway end identifier lights: yes
REIL ARE NON-FRANGIBLE AND ARE SURROUNDED WITH 18 INCH RAZOR WIRE.
yes
REIL ARE NON-FRANGIBLE AND ARE SURROUNDED WITH 18 INCH HIGH RAZOR WIRE.
Touchdown point: yes, no lightsyes, no lights
Obstructions: none
+15 FT DIRT ROAD 143 FT FM RY CNTRLN 0 FT R/L.
15 ft. tree, 345 ft. from runway, 161 ft. left of centerline, 9:1 slope to clear
+8 FT FENCE 0-10 FT FM RY THLD 90-125 FT R.

Airport Ownership and Management from official FAA records

Ownership: Privately-owned
Owner: DOUG & BECKY WILLIAMS
3673 CR 93
AGUA DULCE, TX 78330
Phone 361-998-2516
Manager: DOUG WILLIAMS
3673 CR 93
AGUA DULCE, TX 78330
Phone 361-998-2516

Airport Operational Statistics

Aircraft based on the field: 13
Single engine airplanes: 7
Multi engine airplanes: 2
Jet airplanes: 3
Helicopters: 1
    
Aircraft operations: avg 83/month *
100% local general aviation
* for 12-month period ending 13 April 2017

Additional Remarks

WILDLIFE ON AND IN VICINITY OF THE AIRPORT.

Instrument Procedures

There are no published instrument procedures at 67T.

Some nearby airports with instrument procedures:

KRBO - Nueces County Airport (9 nm E)
KALI - Alice International Airport (10 nm W)
KNOG - Orange Grove Naval Auxiliary Field (12 nm NW)
KIKG - Kleberg County Airport (18 nm SW)
KNQI - Kingsville Naval Air Station (18 nm S)
KCRP - Corpus Christi International Airport (19 nm E)
 
Loc | Ops | Rwys | IFR | FBO | Links
Com | Nav | Svcs | Stats | Notes


 
Area around 67T (Old Hoppe Place Airport)
 
Road maps at: MapQuest Bing Google
 
Aerial photo
No photo
 
Sectional chart

 
Airport distance calculator
Flying to Old Hoppe Place Airport? Find the distance to fly.

From to 67T

Sunrise and sunset
Times for 23-Oct-2018
 Local
(UTC-5)
 Zulu
(UTC)
Morning civil twilight07:1412:14
Sunrise07:3712:37
Sunset18:5423:54
Evening civil twilight19:1800:18

Current date and time
Zulu (UTC)  23-Oct-2018 15:53:48
Local (UTC-5)  23-Oct-2018 10:53:48
 
METAR
KRBO 
9nm E 
231535Z AUTO 36010KT 10SM OVC007 13/12 A3016 RMK AO2 T01260116
KALI 
10nm SW 
231511Z AUTO 36010KT 2 1/2SM BR OVC006 12/12 A3016 RMK AO2 CIG 004V008 T01220117
KNOG 
12nm NW 
231515Z AUTO 01011KT 4SM -RA BR OVC006 12/12 A3017 RMK AO2 CIG 004V008 P0000 T01220122 $
KIKG 
18nm SW 
231535Z AUTO 2 1/2SM -DZ OVC004 13/13 A3017 RMK AO2 T01300130
KNQI 
18nm S 
231532Z 35010KT 3SM -RA BR SCT005 BKN008 OVC011 13/12 A3016 RMK AO2 DZE11RAB11 P0000 T01280117
KCRP 
19nm E 
231451Z 34009KT 7SM -DZ OVC007 12/12 A3014 RMK AO2 SLP205 P0001 60005 T01220117 53016
TAF
KALI 
10nm SW 
231129Z 2312/2412 01012KT 5SM -RA OVC006 FM231400 36010KT 6SM -RA OVC015 TEMPO 2314/2318 4SM -RA BR OVC008 FM231800 36010KT P6SM OVC012 FM240000 01008KT P6SM VCSH OVC006
KNQI 
18nm S 
2307/2407 01016G25KT 9999 VCSH SCT006 BKN015 OVC025 651409 652305 QNH3002INS TEMPO 2307/2312 8000 -RA BR BKN006 OVC012 FM231200 01012G20KT 9000 BR VCSH BKN008 BKN015 OVC025 651409 652305 QNH3003INS TEMPO 2312/2318 35012G16KT 6000 RA BR BKN006 OVC010 FM232000 35010KT 9999 VCSH SCT012 BKN030 OVC050 651409 652305 QNH3000INS TEMPO 2320/2402 9000 -RA BR BKN010 OVC025 FM240300 01009KT 8000 -RA BR BKN015 BKN025 OVC040 651409 652305 QNH2998INS TEMPO 2403/2407 4800 RA BR BKN008 BKN012 OVC020 AUTOMATED SE
KCRP 
19nm E 
231306Z 2313/2412 01012KT 4SM -RA OVC008 TEMPO 2313/2315 2SM -RA BR OVC006 FM231500 36015KT 6SM -RA OVC012 FM231800 01012KT P6SM OVC016 FM240000 02012KT P6SM VCSH OVC008
NOTAMs
Click for the latest NOTAMs
NOTAMs are issued by the DoD/FAA and will open in a separate window not controlled by AirNav.

 

 
 

Would you like to see your business listed on this page?

 If your business provides an interesting product or service to pilots, flight crews, aircraft, or users of the Old Hoppe Place Airport, you should consider listing it here.  To start the listing process, click on the button below
 
Add a business
 

Other Pages about Old Hoppe Place Airport

Update a link
 
Copyright © AirNav, LLC. All rights reserved. Privacy Policy  Contact